STARLINK-38041, 69742

Orbit data source: Space-Track

STARLINK-38041, 69742 is a payload satellite owned by SpaceX/Seattle (US) in SSO that was launched on Thu, 02 Jul 2026 UTC via an FALCON 9 launch vehicle from the Air Force Western Test Range (AFWTR). Payload-class satellites include a variety of spacecraft equipped with specific instruments for various scientific and technological missions. These include communications satellites like Starlink; space stations such as the ISS; scientific satellites like the Hubble; Earth observation satellites from companies like Planet Labs, Umbra, and HawkEye 360; GPS; miniature CubeSats for education and research; and military/defense satellites.

Not visible in the next 10 days
Identifier
69742, 2026-150D
Orbit
SSO
Country
Flag of USUS
Related business
Manufacturer
SpaceX/Seattle
Mission
Operational spacecraft
Bus & Motor
STARLINK V2MO, Unknown motor
Mass
575 kg wet, ~530 kg dry
Launch date (UTC)
2026-07-02 (3 weeks ago)
Launch vehicle
FALCON 9
Launch site
Air Force Western Test Range (AFWTR)
Object type
Payload
Rocket body
Debris
Shape & HBR
Unknown shape, 17.7 m
Radar Cross Section
Large (>1 m²)

Expand to show TLE details & history
Last TLE update: 18 hours ago

TLE from 18 hours ago
0 STARLINK-38041
1 69742U 26150D   26202.49689856  .00291490  00000-0  18809-2 0  9992
2 69742  97.2857  41.1776 0000940 107.7456 252.3912 15.75291148  4312
Epoch: 2026-07-21T11:55Z
TLE epoch observation values (Epoch: 2026-07-21T11:55:32.035Z)
Latitude
-0.00002°
Longitude
-76.97162°
Altitude
347.162 km
Speed
7.7 km/s
True Right ascension
02h 44m 42s
True Declination
0° 00' 00"
Sunlit
Object was in daylight at epoch
Visualization orbit readout
Latitude
Unknown
Longitude
Unknown
Altitude
Unknown
Speed
Unknown
Apparent Right ascension
Unknown
Apparent Declination
Unknown
Sunlit
N/A
Visualization observer readout
Local Sidereal Time
18:37:31
Azimuth
Unknown
Elevation
Unknown
Doppler factor
Unknown
Orbital elements
Apogee altitude
341.322 km
Perigee altitude
340.059 km
Semi-major axis
6,718.827 km
Eccentricity
0.00009
Inclination
97.2857°
RAAN
41.1776°
Arg. of periapsis
107.7456°
True anomaly
252.38093°
Mean anomaly
252.3912°
Eccentric anomaly
252.38607°
Mean motion
3.94097 °/min
Orbital period
91.35 mins
BSTAR
0.0018809
Loading maneuver chart data...
Computing Atmospheric mass density...
Loading historical data...
Loading historical data...
Loading historical data...
Loading historical data...
Loading historical data...
Loading historical data...
Loading historical data...

Documentation

Showing up to 5 results
|